EZY1EU EGNT-LGRP

Flight info

Callsign EZY1EU
Flight time 3h 49m
Altitude 35000
Route GIRLI P18 GASKO Y250 KEFTE UY250 MAMUL L603 DOLAS DCT NAVPI DCT DODEN DCT NEGIX DCT DINKU M867 XERUM DCT BAVAX DCT RADIZ DCT GORPA DCT DEVUL DCT LIKVI DCT REMSO DCT MEDUX UM867 KOGAT DCT ERANA DCT TSL UN130 MES UN139 LURUS UL995 CODIC
Aircraft A320/M-SDE3FGHIRWY/LB1

Departure

Time 2026-04-27 10:31
Airport Newcastle International Airport (EGNT)

Arrival

Time 2026-04-27 14:20
Airport Rhodes International Airport "Diagoras" (LGRP)
Time Latitude Longitude Altitude Speed Heading
2026-04-27 09:56 55.03614 -1.70939 262 ft 0 kts 273°
2026-04-27 10:26 55.03613 -1.70905 261 ft 4 kts 275°
2026-04-27 10:26 55.03612 -1.70883 261 ft 4 kts 278°
2026-04-27 10:27 55.03603 -1.70849 261 ft 4 kts 342°
2026-04-27 10:27 55.03580 -1.70846 262 ft 2 kts
2026-04-27 10:27 55.03579 -1.70846 262 ft 0 kts
2026-04-27 10:29 55.03596 -1.70789 262 ft 8 kts 82°
2026-04-27 10:29 55.03587 -1.70680 262 ft 10 kts 119°
2026-04-27 10:29 55.03512 -1.70645 261 ft 13 kts 181°
2026-04-27 10:29 55.03432 -1.70653 261 ft 11 kts 182°
2026-04-27 10:30 55.03377 -1.70609 261 ft 9 kts 114°
2026-04-27 10:30 55.03406 -1.70439 261 ft 23 kts 65°
2026-04-27 10:30 55.03570 -1.69825 259 ft 91 kts 65°
2026-04-27 10:30 55.03922 -1.68494 251 ft 148 kts 64°
2026-04-27 10:31 55.04370 -1.66787 762 ft 156 kts 65°
2026-04-27 10:31 55.04800 -1.65018 1457 ft 159 kts 61°
2026-04-27 10:31 55.05285 -1.63180 1828 ft 177 kts 59°
2026-04-27 10:31 55.05848 -1.61123 2099 ft 199 kts 60°
2026-04-27 10:32 55.06459 -1.58837 2515 ft 213 kts 65°
2026-04-27 10:32 55.06588 -1.56243 3187 ft 224 kts 104°
2026-04-27 10:32 55.05728 -1.53951 3729 ft 239 kts 143°
2026-04-27 10:32 55.04120 -1.52890 4030 ft 261 kts 173°
2026-04-27 10:33 55.02262 -1.52700 4572 ft 272 kts 182°
2026-04-27 10:33 55.00379 -1.52777 5350 ft 276 kts 182°
2026-04-27 10:33 54.98476 -1.52216 6075 ft 283 kts 158°
2026-04-27 10:33 54.96846 -1.50278 6816 ft 288 kts 131°
2026-04-27 10:34 54.95688 -1.47406 7527 ft 292 kts 122°
2026-04-27 10:34 54.94584 -1.44418 8247 ft 295 kts 123°
2026-04-27 10:34 54.93465 -1.41392 8981 ft 299 kts 123°
2026-04-27 10:34 54.92327 -1.38332 9685 ft 303 kts 123°
2026-04-27 10:35 54.91171 -1.35241 10373 ft 308 kts 124°
2026-04-27 10:35 54.89962 -1.32025 10617 ft 329 kts 124°
2026-04-27 10:35 54.88665 -1.28589 10753 ft 352 kts 124°
2026-04-27 10:35 54.87293 -1.24957 11098 ft 365 kts 124°
2026-04-27 10:36 54.85890 -1.21246 11668 ft 370 kts 124°
2026-04-27 10:36 54.84468 -1.17491 12261 ft 374 kts 124°
2026-04-27 10:36 54.83028 -1.13696 12870 ft 379 kts 124°
2026-04-27 10:36 54.81574 -1.09862 13464 ft 383 kts 124°
2026-04-27 10:37 54.80100 -1.05981 14101 ft 386 kts 125°
2026-04-27 10:37 54.78620 -1.02095 14675 ft 388 kts 125°
2026-04-27 10:37 54.77122 -0.98169 15200 ft 392 kts 125°
2026-04-27 10:37 54.75610 -0.94207 15715 ft 396 kts 125°
2026-04-27 10:38 54.74083 -0.90210 16201 ft 400 kts 124°
2026-04-27 10:38 54.72546 -0.86180 16732 ft 403 kts 124°
2026-04-27 10:38 54.70991 -0.82117 17215 ft 407 kts 124°
2026-04-27 10:38 54.69414 -0.78010 17695 ft 411 kts 125°
2026-04-27 10:39 54.67844 -0.73934 18182 ft 415 kts 125°
2026-04-27 10:39 54.66231 -0.69756 18645 ft 419 kts 125°
2026-04-27 10:39 54.64603 -0.65546 19048 ft 422 kts 125°
2026-04-27 10:39 54.62962 -0.61315 19454 ft 426 kts 124°
2026-04-27 10:40 54.61307 -0.57054 19862 ft 429 kts 124°
2026-04-27 10:40 54.59637 -0.52758 20265 ft 432 kts 124°
2026-04-27 10:40 54.57959 -0.48441 20670 ft 435 kts 124°
2026-04-27 10:40 54.56263 -0.44080 21070 ft 439 kts 124°
2026-04-27 10:41 54.54556 -0.39702 21464 ft 442 kts 124°
2026-04-27 10:41 54.52857 -0.35350 21840 ft 445 kts 124°
2026-04-27 10:41 54.51120 -0.30913 22217 ft 448 kts 124°
2026-04-27 10:41 54.49370 -0.26453 22554 ft 450 kts 124°
2026-04-27 10:42 54.47618 -0.21994 23036 ft 451 kts 124°
2026-04-27 10:42 54.45859 -0.17522 23442 ft 453 kts 124°
2026-04-27 10:42 54.44090 -0.13030 23807 ft 455 kts 124°
2026-04-27 10:42 54.42304 -0.08505 24127 ft 458 kts 124°
2026-04-27 10:43 54.40509 -0.03972 24441 ft 460 kts 124°
2026-04-27 10:43 54.38703 0.00577 24778 ft 462 kts 125°
2026-04-27 10:43 54.36889 0.05139 25118 ft 463 kts 125°
2026-04-27 10:43 54.35070 0.09700 25416 ft 465 kts 125°
2026-04-27 10:44 54.33240 0.14282 25717 ft 467 kts 124°
2026-04-27 10:44 54.31401 0.18882 26007 ft 469 kts 124°
2026-04-27 10:44 54.29552 0.23498 26288 ft 471 kts 124°
2026-04-27 10:44 54.27695 0.28133 26575 ft 473 kts 124°
2026-04-27 10:45 54.25829 0.32783 26856 ft 475 kts 124°
2026-04-27 10:45 54.23949 0.37455 27111 ft 477 kts 124°
2026-04-27 10:45 54.22069 0.42124 27454 ft 477 kts 124°
2026-04-27 10:45 54.20182 0.46798 27762 ft 479 kts 124°
2026-04-27 10:46 54.18311 0.51426 28029 ft 480 kts 124°
2026-04-27 10:46 54.16406 0.56122 28337 ft 481 kts 124°
2026-04-27 10:46 54.14494 0.60820 28634 ft 482 kts 124°
2026-04-27 10:46 54.12578 0.65513 28907 ft 483 kts 124°
2026-04-27 10:47 54.10652 0.70230 29134 ft 485 kts 124°
2026-04-27 10:47 54.08726 0.74952 29391 ft 487 kts 124°
2026-04-27 10:47 54.06783 0.79707 29621 ft 488 kts 124°
2026-04-27 10:47 54.04838 0.84451 29855 ft 490 kts 124°
2026-04-27 10:48 54.02880 0.89211 30093 ft 491 kts 124°
2026-04-27 10:48 54.00916 0.93973 30339 ft 492 kts 124°
2026-04-27 10:48 53.98954 0.98728 30608 ft 491 kts 125°
2026-04-27 10:48 53.96999 1.03462 30974 ft 488 kts 125°
2026-04-27 10:49 53.95050 1.08172 31325 ft 486 kts 126°
2026-04-27 10:49 53.93111 1.12852 31641 ft 484 kts 126°
2026-04-27 10:49 53.91174 1.17512 31921 ft 483 kts 126°
2026-04-27 10:49 53.89236 1.22164 32187 ft 483 kts 126°
2026-04-27 10:50 53.87294 1.26812 32440 ft 483 kts 126°
2026-04-27 10:50 53.85353 1.31449 32699 ft 482 kts 126°
2026-04-27 10:50 53.83434 1.36030 32951 ft 482 kts 126°
2026-04-27 10:50 53.81493 1.40659 33193 ft 482 kts 126°
2026-04-27 10:51 53.79551 1.45282 33439 ft 482 kts 126°
2026-04-27 10:51 53.77610 1.49891 33692 ft 482 kts 126°
2026-04-27 10:51 53.75665 1.54502 33939 ft 481 kts 126°
2026-04-27 10:51 53.73717 1.59109 34211 ft 481 kts 127°
2026-04-27 10:52 53.71773 1.63699 34463 ft 479 kts 127°
2026-04-27 10:52 53.69835 1.68272 34691 ft 478 kts 127°
2026-04-27 10:52 53.67902 1.72824 34911 ft 478 kts 127°
2026-04-27 10:52 53.65967 1.77375 35127 ft 477 kts 127°
2026-04-27 10:53 53.64022 1.81937 35265 ft 478 kts 127°
2026-04-27 10:53 53.60145 1.91002 35313 ft 477 kts 127°
2026-04-27 10:54 53.56290 1.99993 35313 ft 476 kts 128°
2026-04-27 10:54 53.52405 2.09010 35314 ft 477 kts 128°
2026-04-27 10:55 53.48497 2.18029 35313 ft 477 kts 128°
2026-04-27 10:55 53.44590 2.27032 35313 ft 477 kts 128°
2026-04-27 10:56 53.40684 2.36037 35312 ft 477 kts 128°
2026-04-27 10:56 53.36765 2.45020 35311 ft 477 kts 129°
2026-04-27 10:57 53.32833 2.53974 35312 ft 477 kts 129°
2026-04-27 10:57 53.28896 2.62910 35316 ft 477 kts 129°
2026-04-27 10:58 53.24982 2.71774 35315 ft 477 kts 129°
2026-04-27 10:58 53.21043 2.80675 35301 ft 477 kts 129°
2026-04-27 10:59 53.17087 2.89570 35306 ft 477 kts 129°
2026-04-27 10:59 53.13126 2.98449 35312 ft 477 kts 129°
2026-04-27 11:00 53.07180 3.11724 35319 ft 477 kts 130°
2026-04-27 11:00 53.03202 3.20553 35322 ft 477 kts 130°
2026-04-27 11:01 52.99223 3.29356 35326 ft 477 kts 130°
2026-04-27 11:01 52.95228 3.38160 35300 ft 477 kts 130°
2026-04-27 11:02 52.91266 3.46874 35313 ft 476 kts 130°
2026-04-27 11:02 52.87274 3.55627 35316 ft 476 kts 130°
2026-04-27 11:03 52.83267 3.64363 35323 ft 476 kts 130°
2026-04-27 11:03 52.79259 3.73077 35318 ft 476 kts 130°
2026-04-27 11:04 52.75249 3.81786 35320 ft 476 kts 130°
2026-04-27 11:04 52.71233 3.90476 35323 ft 476 kts 130°
2026-04-27 11:05 52.67208 3.99139 35309 ft 476 kts 131°
2026-04-27 11:05 52.63181 4.07785 35317 ft 476 kts 131°
2026-04-27 11:06 52.59167 4.16369 35314 ft 476 kts 131°
2026-04-27 11:06 52.55116 4.24995 35312 ft 476 kts 131°
2026-04-27 11:07 52.51115 4.33510 35314 ft 476 kts 131°
2026-04-27 11:07 52.47063 4.42091 35308 ft 476 kts 131°
2026-04-27 11:08 52.43001 4.50660 35286 ft 476 kts 131°
2026-04-27 11:08 52.38961 4.59147 35293 ft 475 kts 131°
2026-04-27 11:09 52.34886 4.67690 35294 ft 475 kts 131°
2026-04-27 11:09 52.30805 4.76227 35295 ft 475 kts 131°
2026-04-27 11:10 52.26722 4.84742 35299 ft 475 kts 131°
2026-04-27 11:10 52.22632 4.93219 35299 ft 475 kts 131°
2026-04-27 11:11 52.18562 5.01631 35306 ft 476 kts 132°
2026-04-27 11:11 52.14453 5.10091 35279 ft 476 kts 132°
2026-04-27 11:12 52.10347 5.18533 35279 ft 476 kts 132°
2026-04-27 11:12 52.06235 5.26974 35282 ft 476 kts 132°
2026-04-27 11:13 52.02111 5.35399 35284 ft 476 kts 132°
2026-04-27 11:13 51.97978 5.43789 35281 ft 476 kts 133°
2026-04-27 11:14 51.93841 5.52165 35281 ft 476 kts 132°
2026-04-27 11:14 51.90400 5.59136 35265 ft 476 kts 132°
2026-04-27 11:15 51.86260 5.67497 35266 ft 475 kts 133°
2026-04-27 11:15 51.82106 5.75822 35270 ft 475 kts 133°
2026-04-27 11:16 51.77946 5.84137 35270 ft 475 kts 133°
2026-04-27 11:16 51.73789 5.92432 35271 ft 475 kts 133°
2026-04-27 11:17 51.69631 6.00730 35271 ft 475 kts 133°
2026-04-27 11:17 51.65461 6.09002 35271 ft 475 kts 133°
2026-04-27 11:18 51.61285 6.17249 35260 ft 475 kts 133°
2026-04-27 11:18 51.57136 6.25410 35269 ft 474 kts 133°
2026-04-27 11:19 51.52955 6.33622 35271 ft 474 kts 133°
2026-04-27 11:19 51.48773 6.41829 35269 ft 474 kts 133°
2026-04-27 11:20 51.44584 6.50013 35270 ft 474 kts 133°
2026-04-27 11:20 51.40388 6.58173 35268 ft 474 kts 133°
2026-04-27 11:21 51.36179 6.66316 35254 ft 474 kts 133°
2026-04-27 11:21 51.31966 6.74444 35261 ft 475 kts 133°
2026-04-27 11:22 51.27778 6.82520 35264 ft 475 kts 133°
2026-04-27 11:22 51.23562 6.90645 35265 ft 475 kts 133°
2026-04-27 11:23 51.19307 6.98806 35260 ft 475 kts 133°
2026-04-27 11:23 51.15067 7.06890 35257 ft 475 kts 133°
2026-04-27 11:24 51.10851 7.14890 35234 ft 475 kts 133°
2026-04-27 11:24 51.06596 7.22949 35245 ft 475 kts 133°
2026-04-27 11:25 51.02340 7.31008 35258 ft 476 kts 133°
2026-04-27 11:25 50.98083 7.39047 35260 ft 476 kts 133°
2026-04-27 11:26 50.93813 7.47073 35257 ft 476 kts 134°
2026-04-27 11:26 50.89529 7.55087 35242 ft 476 kts 134°
2026-04-27 11:27 50.85244 7.63080 35239 ft 476 kts 134°
2026-04-27 11:27 50.80948 7.71068 35237 ft 476 kts 134°
2026-04-27 11:28 50.76652 7.79046 35239 ft 476 kts 134°
2026-04-27 11:28 50.72350 7.87014 35239 ft 476 kts 134°
2026-04-27 11:29 50.68045 7.94957 35245 ft 477 kts 134°
2026-04-27 11:29 50.63725 8.02909 35238 ft 477 kts 134°
2026-04-27 11:30 50.59406 8.10839 35217 ft 478 kts 133°
2026-04-27 11:30 50.55212 8.18956 35234 ft 478 kts 131°
2026-04-27 11:31 50.51134 8.27140 35232 ft 478 kts 131°
2026-04-27 11:31 50.47001 8.35342 35243 ft 478 kts 131°
2026-04-27 11:32 50.42820 8.43483 35240 ft 478 kts 131°
2026-04-27 11:32 50.38634 8.51598 35243 ft 479 kts 131°
2026-04-27 11:33 50.34291 8.59488 35234 ft 477 kts 136°
2026-04-27 11:33 50.29714 8.67010 35220 ft 476 kts 137°
2026-04-27 11:34 50.25108 8.74469 35229 ft 477 kts 137°
2026-04-27 11:34 50.20573 8.81948 35237 ft 477 kts 136°
2026-04-27 11:35 50.16044 8.89522 35233 ft 477 kts 136°
2026-04-27 11:35 50.11510 8.97064 35235 ft 477 kts 136°
2026-04-27 11:36 50.06954 9.04567 35234 ft 477 kts 136°
2026-04-27 11:36 50.02393 9.12060 35220 ft 476 kts 136°
2026-04-27 11:37 49.97831 9.19547 35222 ft 477 kts 136°
2026-04-27 11:37 49.93262 9.27031 35220 ft 477 kts 136°
2026-04-27 11:38 49.88689 9.34489 35222 ft 477 kts 136°
2026-04-27 11:38 49.84107 9.41935 35223 ft 477 kts 136°
2026-04-27 11:39 49.79546 9.49322 35204 ft 477 kts 136°
2026-04-27 11:39 49.74928 9.56794 35216 ft 477 kts 136°
2026-04-27 11:40 49.70369 9.64161 35220 ft 477 kts 136°
2026-04-27 11:40 49.65762 9.71575 35225 ft 478 kts 136°
2026-04-27 11:41 49.61145 9.78954 35231 ft 478 kts 136°
2026-04-27 11:41 49.56526 9.86326 35236 ft 478 kts 136°
2026-04-27 11:42 49.51907 9.93678 35225 ft 478 kts 136°
2026-04-27 11:42 49.47288 10.01023 35233 ft 478 kts 136°
2026-04-27 11:43 49.42657 10.08357 35237 ft 478 kts 136°
2026-04-27 11:43 49.38021 10.15664 35237 ft 478 kts 136°
2026-04-27 11:44 49.33384 10.22964 35242 ft 478 kts 136°
2026-04-27 11:44 49.28740 10.30259 35250 ft 478 kts 136°
2026-04-27 11:45 49.24857 10.36273 35241 ft 477 kts 140°
2026-04-27 11:45 49.21382 10.40342 35256 ft 473 kts 151°
2026-04-27 11:45 49.18553 10.42929 35252 ft 473 kts 152°
2026-04-27 11:46 49.12906 10.48062 35259 ft 473 kts 152°
2026-04-27 11:46 49.07252 10.53197 35259 ft 473 kts 152°
2026-04-27 11:47 49.01597 10.58317 35245 ft 473 kts 152°
2026-04-27 11:47 48.95942 10.63431 35251 ft 473 kts 151°
2026-04-27 11:48 48.90277 10.68539 35239 ft 473 kts 152°
2026-04-27 11:48 48.84591 10.73645 35233 ft 474 kts 152°
2026-04-27 11:49 48.79394 10.79708 35212 ft 477 kts 134°
2026-04-27 11:49 48.74938 10.87169 35211 ft 477 kts 132°
2026-04-27 11:50 48.70490 10.94620 35220 ft 477 kts 133°
2026-04-27 11:50 48.66029 11.02058 35217 ft 477 kts 132°
2026-04-27 11:51 48.61589 11.09449 35216 ft 477 kts 133°
2026-04-27 11:52 48.54879 11.20589 35214 ft 477 kts 133°
2026-04-27 11:52 48.50403 11.27998 35203 ft 477 kts 132°
2026-04-27 11:53 48.45956 11.35334 35210 ft 477 kts 132°
2026-04-27 11:53 48.41477 11.42698 35214 ft 476 kts 132°
2026-04-27 11:54 48.36999 11.50056 35214 ft 476 kts 132°
2026-04-27 11:54 48.32512 11.57392 35216 ft 476 kts 133°
2026-04-27 11:55 48.28023 11.64708 35216 ft 476 kts 133°
2026-04-27 11:55 48.23433 11.71816 35221 ft 476 kts 136°
2026-04-27 11:56 48.18533 11.78503 35212 ft 476 kts 139°
2026-04-27 11:56 48.13542 11.85067 35208 ft 476 kts 139°
2026-04-27 11:57 48.08614 11.91708 35198 ft 476 kts 137°
2026-04-27 11:57 48.03731 11.98420 35208 ft 476 kts 137°
2026-04-27 11:58 47.98867 12.05092 35189 ft 476 kts 137°
2026-04-27 11:58 47.93996 12.11729 35195 ft 476 kts 137°
2026-04-27 11:59 47.89090 12.18368 35193 ft 476 kts 138°
2026-04-27 11:59 47.84171 12.24982 35197 ft 476 kts 138°
2026-04-27 12:00 47.80090 12.30474 35190 ft 476 kts 138°
2026-04-27 12:00 47.75185 12.37072 35179 ft 476 kts 138°
2026-04-27 12:01 47.69467 12.44720 35176 ft 475 kts 138°
2026-04-27 12:01 47.65343 12.50232 35180 ft 475 kts 138°
2026-04-27 12:02 47.60638 12.57040 35177 ft 475 kts 132°
2026-04-27 12:02 47.56150 12.64234 35193 ft 475 kts 132°
2026-04-27 12:03 47.51648 12.71421 35157 ft 475 kts 132°
2026-04-27 12:03 47.47170 12.78525 35160 ft 475 kts 132°
2026-04-27 12:04 47.42660 12.85657 35166 ft 475 kts 133°
2026-04-27 12:04 47.38147 12.92789 35162 ft 475 kts 132°
2026-04-27 12:05 47.33653 12.99887 35173 ft 475 kts 133°
2026-04-27 12:05 47.29131 13.07006 35162 ft 475 kts 133°
2026-04-27 12:06 47.24596 13.14103 35154 ft 475 kts 133°
2026-04-27 12:06 47.20094 13.21137 35156 ft 474 kts 133°
2026-04-27 12:07 47.15572 13.28194 35157 ft 474 kts 133°
2026-04-27 12:07 47.11039 13.35243 35160 ft 473 kts 133°
2026-04-27 12:08 47.06504 13.42275 35147 ft 473 kts 133°
2026-04-27 12:08 47.01997 13.49255 35145 ft 473 kts 133°
2026-04-27 12:09 46.97461 13.56259 35130 ft 473 kts 133°
2026-04-27 12:09 46.92931 13.63235 35147 ft 472 kts 133°
2026-04-27 12:10 46.88424 13.70154 35144 ft 472 kts 133°
2026-04-27 12:10 46.83888 13.77097 35144 ft 471 kts 133°
2026-04-27 12:11 46.79353 13.84037 35141 ft 472 kts 133°
2026-04-27 12:11 46.74842 13.90918 35139 ft 471 kts 133°
2026-04-27 12:12 46.70298 13.97825 35142 ft 471 kts 133°
2026-04-27 12:12 46.65747 14.04718 35141 ft 471 kts 133°
2026-04-27 12:13 46.61198 14.11591 35158 ft 471 kts 133°
2026-04-27 12:13 46.56670 14.18424 35159 ft 471 kts 133°
2026-04-27 12:14 46.52102 14.25297 35171 ft 471 kts 133°
2026-04-27 12:14 46.47538 14.32137 35151 ft 471 kts 133°
2026-04-27 12:15 46.43003 14.38909 35153 ft 471 kts 133°
2026-04-27 12:15 46.38433 14.45723 35157 ft 471 kts 134°
2026-04-27 12:16 46.33868 14.52520 35157 ft 471 kts 133°
2026-04-27 12:16 46.29291 14.59322 35171 ft 471 kts 133°
2026-04-27 12:17 46.24705 14.66117 35167 ft 471 kts 133°
2026-04-27 12:17 46.20148 14.72843 35162 ft 471 kts 133°
2026-04-27 12:18 46.15559 14.79613 35168 ft 471 kts 133°
2026-04-27 12:18 46.10998 14.86321 35184 ft 470 kts 133°
2026-04-27 12:19 46.06408 14.93043 35178 ft 471 kts 133°
2026-04-27 12:19 46.01813 14.99763 35173 ft 471 kts 133°
2026-04-27 12:20 45.97216 15.06476 35175 ft 471 kts 133°
2026-04-27 12:20 45.92613 15.13174 35175 ft 471 kts 133°
2026-04-27 12:21 45.87999 15.19867 35188 ft 471 kts 133°
2026-04-27 12:21 45.83390 15.26541 35187 ft 471 kts 133°
2026-04-27 12:22 45.78775 15.33196 35188 ft 471 kts 133°
2026-04-27 12:22 45.74456 15.40209 35185 ft 469 kts 128°
2026-04-27 12:23 45.70310 15.47351 35184 ft 469 kts 128°
2026-04-27 12:23 45.66132 15.54529 35183 ft 469 kts 128°
2026-04-27 12:24 45.61946 15.61698 35183 ft 469 kts 128°
2026-04-27 12:24 45.57759 15.68854 35184 ft 469 kts 128°
2026-04-27 12:25 45.53564 15.76002 35196 ft 469 kts 128°
2026-04-27 12:25 45.49363 15.83140 35194 ft 470 kts 128°
2026-04-27 12:26 45.45154 15.90264 35187 ft 470 kts 128°
2026-04-27 12:26 45.40934 15.97384 35194 ft 470 kts 128°
2026-04-27 12:27 45.36715 16.04490 35195 ft 470 kts 128°
2026-04-27 12:27 45.32523 16.11538 35202 ft 470 kts 128°
2026-04-27 12:28 45.28309 16.18628 35200 ft 470 kts 128°
2026-04-27 12:28 45.24079 16.25704 35190 ft 470 kts 128°
2026-04-27 12:29 45.19841 16.32773 35186 ft 470 kts 128°
2026-04-27 12:29 45.15599 16.39827 35194 ft 470 kts 129°
2026-04-27 12:30 45.11337 16.46856 35183 ft 470 kts 129°
2026-04-27 12:30 45.06994 16.53781 35183 ft 470 kts 130°
2026-04-27 12:31 45.02639 16.60608 35180 ft 470 kts 130°
2026-04-27 12:31 44.98267 16.67475 35190 ft 470 kts 131°
2026-04-27 12:32 44.93900 16.74353 35183 ft 470 kts 130°
2026-04-27 12:32 44.89535 16.81231 35173 ft 470 kts 131°
2026-04-27 12:33 44.85165 16.88084 35181 ft 470 kts 131°
2026-04-27 12:33 44.80790 16.94934 35184 ft 470 kts 131°
2026-04-27 12:34 44.76407 17.01781 35186 ft 470 kts 131°
2026-04-27 12:34 44.72030 17.08590 35185 ft 469 kts 131°
2026-04-27 12:35 44.67647 17.15397 35177 ft 469 kts 131°
2026-04-27 12:35 44.63266 17.22191 35166 ft 469 kts 131°
2026-04-27 12:36 44.58876 17.28974 35165 ft 469 kts 132°
2026-04-27 12:36 44.54485 17.35738 35163 ft 469 kts 132°
2026-04-27 12:37 44.50120 17.42451 35159 ft 469 kts 132°
2026-04-27 12:37 44.45724 17.49199 35156 ft 469 kts 132°
2026-04-27 12:38 44.41327 17.55943 35159 ft 469 kts 133°
2026-04-27 12:38 44.36920 17.62666 35143 ft 469 kts 133°
2026-04-27 12:39 44.32503 17.69385 35143 ft 469 kts 133°
2026-04-27 12:39 44.28095 17.76092 35139 ft 469 kts 133°
2026-04-27 12:40 44.23678 17.82781 35142 ft 469 kts 133°
2026-04-27 12:40 44.19259 17.89461 35135 ft 469 kts 133°
2026-04-27 12:41 44.14823 17.96151 35132 ft 469 kts 133°
2026-04-27 12:41 44.10394 18.02809 35125 ft 469 kts 134°
2026-04-27 12:42 44.05951 18.09458 35128 ft 469 kts 134°
2026-04-27 12:42 44.01503 18.16099 35130 ft 469 kts 134°
2026-04-27 12:43 43.97082 18.22696 35131 ft 469 kts 134°
2026-04-27 12:43 43.92627 18.29330 35135 ft 469 kts 134°
2026-04-27 12:44 43.88170 18.35942 35120 ft 469 kts 134°
2026-04-27 12:44 43.83709 18.42534 35124 ft 469 kts 134°
2026-04-27 12:45 43.79239 18.49122 35125 ft 469 kts 134°
2026-04-27 12:45 43.74765 18.55714 35123 ft 469 kts 134°
2026-04-27 12:46 43.70293 18.62297 35129 ft 470 kts 135°
2026-04-27 12:46 43.65815 18.68872 35122 ft 470 kts 135°
2026-04-27 12:47 43.62084 18.74329 35109 ft 470 kts 135°
2026-04-27 12:47 43.57588 18.80879 35113 ft 470 kts 135°
2026-04-27 12:48 43.53082 18.87426 35113 ft 470 kts 136°
2026-04-27 12:48 43.48572 18.93967 35114 ft 471 kts 136°
2026-04-27 12:49 43.44087 19.00540 35114 ft 471 kts 135°
2026-04-27 12:49 43.39657 19.07186 35121 ft 471 kts 134°
2026-04-27 12:50 43.35258 19.13770 35112 ft 471 kts 135°
2026-04-27 12:50 43.30802 19.20380 35112 ft 471 kts 135°
2026-04-27 12:51 43.26334 19.26980 35120 ft 472 kts 135°
2026-04-27 12:51 43.21862 19.33586 35122 ft 472 kts 135°
2026-04-27 12:52 43.17385 19.40179 35124 ft 472 kts 135°
2026-04-27 12:52 43.12903 19.46758 35133 ft 472 kts 135°
2026-04-27 12:53 43.06163 19.56615 35130 ft 472 kts 135°
2026-04-27 12:53 43.01673 19.63172 35133 ft 473 kts 135°
2026-04-27 12:54 42.97174 19.69721 35142 ft 472 kts 135°
2026-04-27 12:54 42.92704 19.76227 35136 ft 472 kts 135°
2026-04-27 12:55 42.88203 19.82757 35139 ft 472 kts 135°
2026-04-27 12:55 42.83700 19.89272 35132 ft 472 kts 135°
2026-04-27 12:56 42.79188 19.95778 35147 ft 472 kts 135°
2026-04-27 12:56 42.74669 20.02280 35146 ft 472 kts 135°
2026-04-27 12:57 42.70367 20.09048 35162 ft 473 kts 131°
2026-04-27 12:57 42.66270 20.16052 35159 ft 473 kts 130°
2026-04-27 12:58 42.62160 20.23031 35164 ft 472 kts 130°
2026-04-27 12:58 42.58005 20.29872 35152 ft 472 kts 131°
2026-04-27 12:59 42.53795 20.36709 35163 ft 472 kts 131°
2026-04-27 12:59 42.49593 20.43543 35167 ft 472 kts 131°
2026-04-27 13:00 42.45397 20.50391 35169 ft 472 kts 131°
2026-04-27 13:00 42.41201 20.57242 35174 ft 472 kts 131°
2026-04-27 13:01 42.37002 20.64072 35181 ft 472 kts 131°
2026-04-27 13:01 42.32794 20.70890 35182 ft 472 kts 131°
2026-04-27 13:02 42.28583 20.77689 35173 ft 472 kts 131°
2026-04-27 13:02 42.24395 20.84447 35182 ft 472 kts 131°
2026-04-27 13:03 42.20174 20.91233 35183 ft 471 kts 131°
2026-04-27 13:03 42.15963 20.98009 35182 ft 472 kts 131°
2026-04-27 13:04 42.11737 21.04763 35180 ft 471 kts 133°
2026-04-27 13:04 42.07055 21.10906 35172 ft 469 kts 138°
2026-04-27 13:05 42.02298 21.16933 35159 ft 470 kts 138°
2026-04-27 13:05 41.97535 21.22960 35154 ft 470 kts 138°
2026-04-27 13:06 41.92776 21.28973 35151 ft 470 kts 138°
2026-04-27 13:06 41.88037 21.34957 35150 ft 470 kts 138°
2026-04-27 13:07 41.83261 21.40974 35152 ft 471 kts 138°
2026-04-27 13:07 41.78486 21.46982 35155 ft 470 kts 138°
2026-04-27 13:08 41.73707 21.52978 35142 ft 471 kts 139°
2026-04-27 13:08 41.68924 21.58958 35139 ft 470 kts 139°
2026-04-27 13:09 41.64136 21.64931 35147 ft 471 kts 139°
2026-04-27 13:09 41.59372 21.70862 35149 ft 471 kts 139°
2026-04-27 13:10 41.54575 21.76826 35147 ft 471 kts 139°
2026-04-27 13:10 41.49785 21.82779 35154 ft 470 kts 139°
2026-04-27 13:11 41.44999 21.88718 35155 ft 470 kts 139°
2026-04-27 13:11 41.40205 21.94644 35156 ft 470 kts 139°
2026-04-27 13:12 41.35404 22.00557 35154 ft 470 kts 139°
2026-04-27 13:12 41.30606 22.06454 35161 ft 469 kts 139°
2026-04-27 13:13 41.25836 22.12301 35164 ft 469 kts 139°
2026-04-27 13:13 41.21034 22.18176 35155 ft 469 kts 139°
2026-04-27 13:14 41.16227 22.24051 35163 ft 469 kts 140°
2026-04-27 13:14 41.11274 22.29653 35169 ft 468 kts 143°
2026-04-27 13:15 41.06171 22.34998 35168 ft 467 kts 144°
2026-04-27 13:15 41.01068 22.40333 35166 ft 467 kts 143°
2026-04-27 13:16 40.96004 22.45734 35163 ft 468 kts 143°
2026-04-27 13:16 40.90953 22.51167 35167 ft 468 kts 143°
2026-04-27 13:17 40.85915 22.56562 35169 ft 469 kts 143°
2026-04-27 13:17 40.80839 22.61968 35171 ft 469 kts 143°
2026-04-27 13:18 40.75757 22.67367 35175 ft 469 kts 144°
2026-04-27 13:18 40.70669 22.72764 35169 ft 469 kts 144°
2026-04-27 13:19 40.65576 22.78160 35174 ft 469 kts 144°
2026-04-27 13:19 40.60474 22.83537 35180 ft 469 kts 144°
2026-04-27 13:20 40.55381 22.88895 35185 ft 469 kts 144°
2026-04-27 13:20 40.50282 22.94261 35187 ft 469 kts 144°
2026-04-27 13:21 40.45289 22.99687 35191 ft 471 kts 137°
2026-04-27 13:21 40.40762 23.05925 35188 ft 471 kts 135°
2026-04-27 13:22 40.36247 23.12161 35188 ft 471 kts 136°
2026-04-27 13:22 40.31728 23.18392 35187 ft 471 kts 136°
2026-04-27 13:23 40.27210 23.24609 35193 ft 471 kts 136°
2026-04-27 13:23 40.22688 23.30819 35192 ft 471 kts 136°
2026-04-27 13:24 40.18168 23.37021 35178 ft 471 kts 136°
2026-04-27 13:24 40.13640 23.43218 35189 ft 470 kts 135°
2026-04-27 13:25 40.09117 23.49394 35191 ft 470 kts 135°
2026-04-27 13:25 40.04619 23.55528 35192 ft 470 kts 135°
2026-04-27 13:26 40.00088 23.61682 35192 ft 470 kts 136°
2026-04-27 13:26 39.95557 23.67831 35192 ft 470 kts 136°
2026-04-27 13:27 39.91020 23.73977 35192 ft 470 kts 136°
2026-04-27 13:27 39.86477 23.80115 35185 ft 470 kts 135°
2026-04-27 13:28 39.81930 23.86243 35185 ft 470 kts 135°
2026-04-27 13:28 39.77381 23.92364 35190 ft 470 kts 135°
2026-04-27 13:29 39.72859 23.98434 35191 ft 470 kts 135°
2026-04-27 13:29 39.68309 24.04544 35189 ft 470 kts 136°
2026-04-27 13:30 39.63749 24.10642 35183 ft 470 kts 136°
2026-04-27 13:30 39.59188 24.16725 35174 ft 470 kts 135°
2026-04-27 13:31 39.54627 24.22802 35174 ft 470 kts 135°
2026-04-27 13:31 39.50097 24.28835 35175 ft 470 kts 136°
2026-04-27 13:32 39.45531 24.34893 35170 ft 470 kts 136°
2026-04-27 13:32 39.40956 24.40953 35169 ft 469 kts 136°
2026-04-27 13:33 39.36389 24.46987 35177 ft 469 kts 136°
2026-04-27 13:33 39.31853 24.52976 35168 ft 469 kts 135°
2026-04-27 13:34 39.27326 24.59034 35160 ft 469 kts 135°
2026-04-27 13:34 39.22799 24.65110 35156 ft 468 kts 135°
2026-04-27 13:35 39.18266 24.71159 35157 ft 468 kts 135°
2026-04-27 13:35 39.13730 24.77185 35143 ft 468 kts 135°
2026-04-27 13:36 39.09191 24.83199 35145 ft 468 kts 136°
2026-04-27 13:36 39.04613 24.89162 35144 ft 468 kts 136°
2026-04-27 13:37 39.00790 24.94092 35126 ft 468 kts 136°
2026-04-27 13:37 38.95448 25.00980 35149 ft 468 kts 136°
2026-04-27 13:38 38.91599 25.05946 35132 ft 468 kts 136°
2026-04-27 13:38 38.87041 25.11825 35132 ft 468 kts 136°
2026-04-27 13:39 38.82450 25.17737 35126 ft 467 kts 136°
2026-04-27 13:39 38.77852 25.23640 35119 ft 467 kts 136°
2026-04-27 13:40 38.73251 25.29543 35117 ft 467 kts 136°
2026-04-27 13:40 38.68652 25.35437 35120 ft 467 kts 136°
2026-04-27 13:41 38.64054 25.41315 35114 ft 466 kts 136°
2026-04-27 13:41 38.59457 25.47162 35113 ft 466 kts 136°
2026-04-27 13:42 38.54891 25.52964 35106 ft 466 kts 136°
2026-04-27 13:42 38.50294 25.58797 35100 ft 465 kts 136°
2026-04-27 13:43 38.45699 25.64618 35091 ft 465 kts 136°
2026-04-27 13:43 38.41098 25.70440 35082 ft 465 kts 136°
2026-04-27 13:44 38.36498 25.76250 35085 ft 465 kts 136°
2026-04-27 13:44 38.31929 25.82021 35082 ft 465 kts 136°
2026-04-27 13:45 38.27300 25.87759 35077 ft 464 kts 141°
2026-04-27 13:45 38.21857 25.92053 35075 ft 459 kts 159°
2026-04-27 13:46 38.15861 25.94829 35065 ft 458 kts 162°
2026-04-27 13:46 38.09850 25.97561 35062 ft 458 kts 162°
2026-04-27 13:47 38.03835 26.00298 35062 ft 458 kts 162°
2026-04-27 13:47 37.97830 26.03025 35055 ft 458 kts 162°
2026-04-27 13:48 37.91821 26.05752 35054 ft 458 kts 162°
2026-04-27 13:48 37.85812 26.08468 35044 ft 458 kts 162°
2026-04-27 13:49 37.79838 26.11172 35049 ft 458 kts 162°
2026-04-27 13:49 37.73835 26.13880 35048 ft 458 kts 162°
2026-04-27 13:50 37.67815 26.16585 35046 ft 458 kts 162°
2026-04-27 13:50 37.61810 26.19283 35047 ft 458 kts 162°
2026-04-27 13:51 37.55804 26.21983 35040 ft 458 kts 162°
2026-04-27 13:51 37.49831 26.24665 35040 ft 458 kts 162°
2026-04-27 13:52 37.43823 26.27347 35037 ft 458 kts 162°
2026-04-27 13:52 37.37811 26.30020 35033 ft 458 kts 162°
2026-04-27 13:53 37.28790 26.34031 35025 ft 458 kts 162°
2026-04-27 13:54 37.22771 26.36717 35023 ft 459 kts 162°
2026-04-27 13:54 37.16751 26.39390 35010 ft 459 kts 162°
2026-04-27 13:55 37.10728 26.42060 35011 ft 459 kts 162°
2026-04-27 13:55 37.04738 26.44714 35014 ft 459 kts 162°
2026-04-27 13:56 36.98710 26.47376 35016 ft 459 kts 163°
2026-04-27 13:56 36.92848 26.50551 35004 ft 462 kts 149°
2026-04-27 13:56 36.90279 26.52980 35004 ft 465 kts 138°
2026-04-27 13:57 36.88085 26.55953 35006 ft 466 kts 128°
2026-04-27 13:57 36.86340 26.59361 35005 ft 467 kts 117°
2026-04-27 13:57 36.85012 26.63060 34995 ft 467 kts 113°
2026-04-27 13:57 36.83732 26.66803 34750 ft 469 kts 113°
2026-04-27 13:58 36.82439 26.70571 33781 ft 476 kts 113°
2026-04-27 13:58 36.81127 26.74382 32923 ft 477 kts 113°
2026-04-27 13:58 36.79825 26.78155 32426 ft 471 kts 113°
2026-04-27 13:58 36.78535 26.81887 31835 ft 467 kts 113°
2026-04-27 13:59 36.77253 26.85590 31260 ft 463 kts 113°
2026-04-27 13:59 36.76207 26.88611 30790 ft 459 kts 113°
2026-04-27 13:59 36.74964 26.92207 30235 ft 456 kts 113°
2026-04-27 13:59 36.73714 26.95821 29610 ft 453 kts 113°
2026-04-27 14:00 36.72471 26.99419 28972 ft 450 kts 113°
2026-04-27 14:00 36.71220 27.03028 28330 ft 447 kts 113°
2026-04-27 14:00 36.70006 27.06527 27728 ft 443 kts 113°
2026-04-27 14:00 36.68783 27.10037 27128 ft 440 kts 113°
2026-04-27 14:01 36.67564 27.13522 26540 ft 437 kts 113°
2026-04-27 14:01 36.66355 27.16982 25940 ft 434 kts 112°
2026-04-27 14:01 36.65148 27.20430 25370 ft 431 kts 112°
2026-04-27 14:01 36.63953 27.23839 24814 ft 428 kts 112°
2026-04-27 14:02 36.62764 27.27222 24274 ft 426 kts 112°
2026-04-27 14:02 36.61583 27.30588 23735 ft 423 kts 112°
2026-04-27 14:02 36.60409 27.33930 23143 ft 420 kts 112°
2026-04-27 14:02 36.59238 27.37261 22520 ft 418 kts 112°
2026-04-27 14:03 36.58074 27.40569 21912 ft 417 kts 112°
2026-04-27 14:03 36.56913 27.43860 21316 ft 415 kts 112°
2026-04-27 14:03 36.55754 27.47140 20742 ft 413 kts 112°
2026-04-27 14:03 36.54596 27.50408 20157 ft 411 kts 112°
2026-04-27 14:04 36.53447 27.53652 19596 ft 409 kts 112°
2026-04-27 14:04 36.52306 27.56883 19048 ft 407 kts 112°
2026-04-27 14:04 36.51184 27.60058 18508 ft 405 kts 112°
2026-04-27 14:04 36.50050 27.63260 17929 ft 404 kts 112°
2026-04-27 14:05 36.48949 27.66356 17335 ft 402 kts 112°
2026-04-27 14:05 36.47820 27.69528 16737 ft 401 kts 112°
2026-04-27 14:05 36.46762 27.72721 16148 ft 398 kts 107°
2026-04-27 14:05 36.46156 27.76058 15574 ft 395 kts 98°
2026-04-27 14:06 36.45714 27.79419 15011 ft 393 kts 98°
2026-04-27 14:06 36.45266 27.82765 14457 ft 392 kts 98°
2026-04-27 14:06 36.44814 27.86095 13910 ft 390 kts 98°
2026-04-27 14:06 36.44330 27.89397 13316 ft 388 kts 103°
2026-04-27 14:07 36.43408 27.92529 12721 ft 386 kts 116°
2026-04-27 14:07 36.41959 27.95321 12135 ft 383 kts 127°
2026-04-27 14:07 36.40337 27.97930 11547 ft 381 kts 127°
2026-04-27 14:07 36.38727 28.00522 10995 ft 377 kts 127°
2026-04-27 14:08 36.37136 28.03091 10434 ft 374 kts 127°
2026-04-27 14:08 36.35564 28.05631 10070 ft 365 kts 127°
2026-04-27 14:08 36.34053 28.08070 9915 ft 347 kts 127°
2026-04-27 14:08 36.32661 28.10371 9771 ft 320 kts 126°
2026-04-27 14:09 36.31405 28.12531 9644 ft 300 kts 124°
2026-04-27 14:09 36.30209 28.14625 9481 ft 295 kts 125°
2026-04-27 14:09 36.29026 28.16699 9367 ft 294 kts 125°
2026-04-27 14:09 36.27845 28.18764 9250 ft 293 kts 125°
2026-04-27 14:10 36.26664 28.20819 9101 ft 293 kts 125°
2026-04-27 14:10 36.25511 28.22897 8978 ft 292 kts 118°
2026-04-27 14:10 36.24899 28.25268 8852 ft 290 kts 94°
2026-04-27 14:10 36.25080 28.27754 8346 ft 293 kts 70°
2026-04-27 14:11 36.26097 28.29895 8023 ft 287 kts 46°
2026-04-27 14:11 36.27678 28.31353 7629 ft 283 kts 24°
2026-04-27 14:11 36.29548 28.31923 7239 ft 281 kts
2026-04-27 14:11 36.31501 28.31886 6815 ft 281 kts 358°
2026-04-27 14:12 36.33453 28.31820 6429 ft 280 kts 358°
2026-04-27 14:12 36.35399 28.31751 6032 ft 278 kts 358°
2026-04-27 14:12 36.37325 28.31684 5604 ft 277 kts 358°
2026-04-27 14:12 36.39280 28.31445 4861 ft 287 kts 346°
2026-04-27 14:13 36.41139 28.30527 4108 ft 287 kts 328°
2026-04-27 14:13 36.42634 28.28999 3737 ft 269 kts 311°
2026-04-27 14:13 36.43631 28.27178 3626 ft 242 kts 296°
2026-04-27 14:13 36.44180 28.25305 3573 ft 225 kts 283°
2026-04-27 14:14 36.44381 28.23386 3526 ft 223 kts 276°
2026-04-27 14:14 36.44740 28.21548 3386 ft 220 kts 302°
2026-04-27 14:14 36.45817 28.20262 3138 ft 216 kts 334°
2026-04-27 14:14 36.47279 28.19975 2890 ft 217 kts
2026-04-27 14:15 36.48602 28.20803 2749 ft 216 kts 43°
2026-04-27 14:15 36.49298 28.22431 2626 ft 216 kts 78°
2026-04-27 14:15 36.49111 28.24246 2511 ft 212 kts 116°
2026-04-27 14:15 36.48147 28.25521 2424 ft 198 kts 155°
2026-04-27 14:16 36.46887 28.25826 2412 ft 176 kts 192°
2026-04-27 14:16 36.45809 28.25324 2376 ft 161 kts 221°
2026-04-27 14:16 36.45122 28.24307 2280 ft 150 kts 250°
2026-04-27 14:16 36.44756 28.23092 2115 ft 149 kts 255°
2026-04-27 14:17 36.44414 28.21913 1938 ft 142 kts 255°
2026-04-27 14:17 36.44084 28.20780 1754 ft 138 kts 255°
2026-04-27 14:17 36.43760 28.19666 1575 ft 136 kts 255°
2026-04-27 14:17 36.43438 28.18559 1398 ft 136 kts 255°
2026-04-27 14:18 36.43119 28.17465 1218 ft 135 kts 254°
2026-04-27 14:18 36.42806 28.16391 1049 ft 133 kts 254°
2026-04-27 14:18 36.42490 28.15311 872 ft 130 kts 251°
2026-04-27 14:18 36.42188 28.14275 713 ft 129 kts 250°
2026-04-27 14:19 36.41884 28.13230 546 ft 131 kts 250°
2026-04-27 14:19 36.41576 28.12133 406 ft 136 kts 250°
2026-04-27 14:19 36.41250 28.11026 202 ft 136 kts 249°
2026-04-27 14:19 36.40931 28.09953 43 ft 126 kts 250°
2026-04-27 14:20 36.40670 28.09067 30 ft 87 kts 250°
2026-04-27 14:20 36.40501 28.08488 27 ft 61 kts 250°
2026-04-27 14:20 36.40370 28.08078 28 ft 42 kts 238°
2026-04-27 14:20 36.40194 28.07865 28 ft 24 kts 208°
2026-04-27 14:21 36.40158 28.07945 28 ft 16 kts 72°
2026-04-27 14:21 36.40228 28.08177 28 ft 39 kts 70°
2026-04-27 14:21 36.40322 28.08501 28 ft 38 kts 70°
2026-04-27 14:21 36.40398 28.08780 28 ft 32 kts 79°
2026-04-27 14:22 36.40411 28.09047 28 ft 21 kts 72°
2026-04-27 14:22 36.40434 28.09122 28 ft 0 kts 69°
2026-04-27 14:22 36.40438 28.09134 28 ft 6 kts 73°
2026-04-27 14:22 36.40416 28.09167 28 ft 5 kts 151°
2026-04-27 14:23 36.40394 28.09177 28 ft 6 kts 159°
2026-04-27 14:23 36.40379 28.09184 28 ft 0 kts 159°